Temp
-12 -12 -12 -12 -12 -12 -11 -11 -11 -11 -11 -11 -11 -11 -11 -11 -10 -10 -10 -10 -11 -11 -10 -10 -10 -11 -11 -10 -10 -10 -10 -10 -10 -10 -10 -9 -9 -9 -9 -9 -9 -9 -9 -9 -10
-11 -12 -11 -12 -12 -12 -12 -12 -11 -12 -11 -11 -11 -11 -11 -10 -10 -10 -10 -10 -10 -11 -11 -11 -11 -10 -11 -11 -10 -10 -10 -10 -10 -10 -10 -10 -10 -10 -10 -10 -10 -10 -10 -10 -10
-12 -12 -12 -12 -12 -12 -12 -12 -12 -11 -11 -11 -11 -11 -11 -10 -10 -10 -10 -10 -10 -10 -11 -11 -11 -10 -10 -11 -11 -11 -11 -11 -11 -10 -10 -10 -10 -10 -11 -10 -11 -11 -11 -11 -11
-11 -11 -12 -12 -12 -12 -12 -12 -11 -11 -11 -11 -11 -11 -11 -11 -11 -10 -10 -10 -10 -10 -11 -11 -11 -11 -10 -10 -10 -11 -11 -11 -11 -11 -10 -10 -10 -11 -11 -11 -11 -11 -11 -12 -12
-12 -12 -12 -12 -12 -12 -12 -11 -11 -10 -10 -11 -11 -11 -11 -11 -11 -10 -10 -10 -10 -10 -11 -11 -11 -11 -11 -10 -10 -10 -11 -11 -11 -11 -11 -11 -10 -10 -10 -11 -10 -11 -11 -10 -11
-11 -11 -12 -12 -12 -12 -12 -12 -11 -11 -10 -10 -11 -11 -11 -12 -11 -10 -10 -11 -10 -11 -11 -11 -11 -11 -11 -11 -11 -10 -10 -11 -11 -11 -11 -11 -11 -10 -10 -11 -11 -11 -11 -10 -10
-12 -11 -12 -12 -12 -12 -12 -12 -11 -11 -11 -11 -11 -11 -11 -12 -11 -11 -11 -11 -11 -10 -11 -11 -11 -11 -11 -11 -11 -11 -10 -10 -11 -11 -11 -10 -10 -11 -11 -11 -11 -11 -11 -11 -11
-12 -12 -12 -12 -12 -13 -12 -12 -11 -11 -11 -11 -11 -11 -11 -11 -11 -11 -11 -11 -11 -11 -11 -11 -10 -10 -11 -11 -11 -10 -10 -10 -11 -12 -11 -10 -9 -11 -11 -10 -10 -10 -11 -11 -11
-12 -13 -12 -12 -12 -12 -13 -12 -12 -12 -11 -11 -11 -11 -11 -11 -12 -11 -12 -12 -11 -12 -12 -12 -11 -11 -11 -11 -11 -11 -11 -11 -11 -11 -10 -10 -10 -11 -11 -10 -10 -10 -10 -11 -11
-13 -13 -13 -13 -12 -13 -12 -13 -13 -12 -12 -12 -11 -11 -11 -13 -12 -12 -12 -12 -12 -12 -12 -12 -12 -11 -12 -12 -11 -12 -11 -10 -11 -11 -11 -10 -10 -10 -11 -10 -10 -10 -10 -10 -11
-13 -13 -13 -12 -13 -12 -13 -13 -13 -12 -12 -12 -11 -11 -12 -12 -12 -13 -13 -12 -12 -12 -12 -12 -12 -12 -12 -12 -12 -12 -11 -11 -11 -12 -11 -11 -10 -10 -11 -10 -10 -10 -10 -10 -11
-14 -14 -14 -13 -13 -13 -13 -13 -13 -12 -11 -12 -12 -11 -12 -12 -11 -13 -14 -13 -13 -13 -13 -12 -12 -13 -13 -13 -12 -12 -12 -11 -11 -12 -12 -11 -10 -10 -10 -11 -11 -11 -11 -11 -11
-15 -15 -15 -15 -15 -14 -14 -14 -14 -13 -12 -11 -13 -12 -11 -12 -11 -13 -13 -13 -13 -13 -13 -13 -13 -13 -13 -13 -13 -13 -13 -12 -12 -12 -12 -11 -10 -10 -10 -10 -11 -11 -11 -11 -12
-16 -16 -16 -15 -16 -16 -16 -15 -15 -15 -14 -12 -12 -12 -12 -12 -12 -12 -13 -13 -13 -13 -14 -13 -13 -13 -13 -13 -14 -13 -14 -14 -13 -13 -12 -13 -10 -10 -11 -11 -12 -12 -12 -13 -13
-16 -16 -16 -17 -16 -17 -17 -17 -16 -16 -16 -14 -14 -14 -14 -14 -13 -14 -13 -14 -14 -14 -14 -13 -13 -14 -14 -14 -14 -13 -14 -14 -14 -13 -13 -12 -13 -10 -11 -12 -12 -13 -14 -14 -14
-17 -17 -17 -17 -17 -17 -17 -17 -17 -17 -15 -16 -16 -16 -15 -15 -15 -15 -15 -14 -15 -14 -14 -14 -14 -14 -13 -14 -14 -14 -14 -14 -14 -14 -13 -13 -14 -11 -12 -13 -13 -13 -14 -15 -15
-17 -17 -18 -18 -17 -17 -17 -17 -18 -17 -16 -17 -17 -16 -16 -16 -17 -16 -16 -16 -16 -15 -15 -15 -14 -14 -14 -14 -15 -15 -15 -15 -15 -15 -14 -14 -15 -13 -14 -14 -14 -14 -14 -15 -15
-18 -18 -18 -18 -18 -18 -18 -18 -17 -16 -16 -18 -18 -18 -18 -18 -18 -18 -18 -17 -17 -17 -17 -16 -16 -16 -16 -16 -16 -16 -17 -16 -16 -15 -15 -15 -16 -15 -15 -15 -14 -14 -15 -15 -15
-19 -19 -19 -19 -19 -19 -20 -19 -17 -17 -17 -18 -19 -20 -19 -19 -19 -20 -20 -19 -19 -19 -19 -19 -18 -18 -18 -18 -18 -18 -17 -17 -18 -16 -17 -16 -16 -16 -16 -15 -15 -15 -15 -15 -16
-20 -20 -20 -20 -20 -20 -21 -20 -20 -19 -20 -21 -20 -21 -21 -21 -22 -22 -22 -22 -21 -21 -22 -21 -20 -20 -20 -19 -19 -18 -18 -19 -19 -19 -18 -17 -17 -18 -17 -17 -16 -16 -16 -17 -17
-21 -21 -21 -21 -21 -22 -21 -22 -21 -22 -23 -23 -22 -22 -22 -22 -22 -22 -23 -23 -23 -23 -23 -22 -22 -21 -21 -21 -21 -21 -20 -20 -20 -20 -20 -19 -19 -18 -18 -18 -18 -18 -18 -18 -18
-22 -22 -22 -23 -24 -24 -24 -24 -25 -24 -25 -25 -25 -25 -25 -25 -24 -24 -24 -24 -23 -24 -23 -23 -23 -22 -22 -22 -22 -22 -21 -21 -21 -21 -20 -20 -21 -20 -20 -19 -19 -19 -19 -19 -18
-24 -24 -25 -25 -25 -26 -26 -26 -26 -26 -26 -26 -26 -26 -25 -25 -26 -25 -25 -24 -25 -25 -24 -24 -24 -23 -23 -23 -22 -22 -23 -22 -21 -21 -21 -21 -21 -20 -20 -21 -20 -20 -20 -20 -19
-26 -26 -26 -26 -26 -26 -27 -27 -27 -27 -27 -27 -27 -27 -26 -26 -26 -26 -25 -25 -25 -25 -25 -25 -25 -25 -24 -24 -24 -24 -23 -24 -24 -24 -24 -23 -22 -22 -21 -21 -21 -20 -20 -21 -21
-27 -27 -27 -27 -27 -28 -28 -28 -28 -28 -28 -27 -27 -27 -27 -27 -26 -27 -26 -26 -26 -26 -26 -26 -26 -25 -25 -25 -25 -24 -25 -25 -25 -24 -24 -23 -23 -23 -24 -22 -22 -21 -22 -22 -20
-27 -27 -28 -28 -28 -28 -28 -28 -28 -28 -29 -28 -28 -28 -28 -28 -27 -27 -27 -27 -26 -26 -27 -26 -26 -26 -26 -25 -25 -25 -25 -25 -25 -25 -25 -25 -24 -24 -24 -24 -23 -22 -23 -23 -23
-28 -29 -29 -28 -29 -29 -29 -30 -29 -30 -29 -29 -29 -29 -28 -28 -28 -27 -27 -27 -27 -27 -26 -26 -26 -26 -26 -26 -26 -26 -25 -25 -25 -26 -26 -25 -25 -25 -24 -24 -24 -24 -24 -24 -23
Height
5796 5796 5796 5797 5799 5799 5799 5798 5798 5799 5798 5799 5800 5801 5803 5803 5802 5800 5802 5802 5801 5800 5799 5799 5802 5802 5799 5799 5800 5800 5802 5804 5803 5802 5804 5804 5805 5805 5806 5808 5810 5811 5813 5815 5815
5788 5790 5789 5790 5790 5791 5791 5791 5791 5791 5792 5793 5794 5796 5797 5798 5798 5796 5795 5797 5796 5794 5793 5793 5795 5796 5795 5793 5792 5794 5797 5797 5797 5797 5800 5800 5800 5799 5801 5803 5804 5804 5806 5808 5809
5782 5783 5783 5783 5783 5784 5783 5784 5785 5785 5785 5787 5790 5791 5792 5792 5793 5790 5790 5792 5792 5789 5787 5787 5788 5788 5788 5787 5786 5789 5792 5790 5792 5792 5794 5795 5795 5792 5793 5797 5799 5799 5799 5801 5801
5776 5776 5777 5777 5777 5777 5776 5777 5778 5779 5780 5782 5784 5786 5786 5786 5788 5782 5787 5786 5786 5785 5783 5781 5781 5782 5783 5781 5782 5782 5785 5784 5787 5785 5787 5789 5790 5788 5788 5793 5792 5790 5792 5794 5795
5768 5768 5771 5770 5771 5769 5769 5771 5771 5772 5773 5776 5778 5780 5781 5781 5780 5773 5780 5780 5779 5779 5779 5777 5775 5775 5777 5776 5775 5775 5779 5778 5782 5781 5780 5780 5784 5781 5783 5786 5784 5783 5785 5787 5789
5762 5764 5764 5766 5765 5765 5764 5764 5763 5764 5766 5768 5769 5771 5773 5776 5770 5770 5770 5773 5773 5771 5771 5772 5769 5768 5770 5771 5770 5770 5772 5773 5776 5774 5772 5770 5773 5769 5783 5778 5775 5776 5776 5778 5779
5753 5754 5756 5757 5758 5758 5758 5757 5757 5758 5758 5759 5760 5762 5764 5766 5763 5763 5765 5764 5763 5766 5765 5763 5763 5763 5763 5766 5765 5764 5765 5766 5770 5767 5764 5762 5763 5769 5773 5769 5768 5768 5770 5770 5772
5744 5745 5745 5745 5747 5748 5748 5749 5748 5749 5750 5749 5750 5751 5755 5756 5756 5755 5757 5756 5755 5755 5758 5756 5755 5757 5758 5758 5758 5758 5758 5761 5763 5758 5758 5756 5759 5765 5762 5761 5761 5762 5763 5765 5766
5734 5735 5735 5735 5735 5737 5738 5738 5739 5740 5741 5741 5742 5741 5745 5746 5747 5747 5747 5748 5748 5748 5747 5748 5748 5748 5749 5752 5750 5751 5751 5751 5753 5752 5751 5750 5750 5759 5756 5753 5753 5754 5756 5757 5757
5722 5723 5725 5726 5724 5727 5728 5727 5728 5729 5731 5732 5732 5733 5734 5735 5735 5736 5736 5739 5740 5740 5739 5740 5739 5738 5740 5744 5743 5741 5738 5740 5744 5748 5743 5742 5742 5748 5749 5745 5745 5746 5748 5747 5748
5710 5711 5710 5712 5712 5713 5715 5717 5719 5718 5719 5720 5721 5721 5724 5722 5722 5723 5727 5727 5729 5729 5730 5729 5728 5731 5735 5732 5730 5730 5730 5730 5734 5735 5734 5733 5732 5736 5739 5738 5740 5739 5737 5737 5738
5698 5699 5696 5698 5697 5698 5701 5702 5703 5703 5706 5708 5711 5708 5712 5708 5710 5715 5713 5714 5716 5718 5719 5719 5717 5723 5721 5721 5722 5720 5719 5720 5723 5724 5723 5723 5724 5726 5729 5730 5729 5728 5728 5729 5730
5681 5681 5684 5685 5686 5688 5687 5687 5686 5687 5691 5697 5698 5695 5694 5696 5700 5708 5702 5702 5703 5704 5707 5708 5709 5707 5708 5708 5708 5709 5708 5708 5709 5709 5711 5709 5711 5717 5718 5718 5719 5717 5717 5717 5717
5666 5666 5668 5670 5673 5672 5672 5673 5675 5673 5674 5681 5676 5680 5683 5683 5687 5691 5689 5691 5688 5692 5693 5691 5694 5695 5696 5694 5695 5695 5697 5694 5692 5690 5692 5698 5689 5703 5706 5707 5707 5705 5704 5704 5705
5650 5653 5654 5655 5656 5657 5657 5658 5660 5662 5661 5664 5660 5662 5667 5671 5673 5675 5674 5675 5677 5677 5678 5680 5680 5681 5681 5682 5681 5682 5680 5680 5678 5676 5677 5681 5679 5689 5692 5694 5693 5693 5692 5690 5689
5636 5638 5641 5640 5642 5643 5642 5642 5646 5652 5649 5651 5648 5647 5650 5652 5651 5655 5660 5661 5661 5662 5663 5665 5665 5665 5668 5670 5669 5669 5664 5662 5664 5663 5661 5667 5666 5673 5677 5671 5676 5675 5678 5677 5676
5621 5624 5623 5623 5625 5627 5625 5625 5630 5636 5642 5637 5631 5631 5632 5633 5635 5635 5640 5644 5646 5647 5648 5648 5650 5651 5652 5654 5654 5653 5651 5649 5648 5646 5649 5652 5648 5658 5657 5656 5654 5657 5659 5661 5663
5605 5609 5609 5606 5608 5609 5607 5606 5614 5625 5627 5619 5617 5613 5617 5618 5619 5620 5623 5623 5624 5627 5629 5630 5635 5636 5638 5637 5637 5635 5637 5637 5629 5634 5639 5641 5630 5638 5640 5640 5642 5643 5644 5644 5647
5591 5594 5595 5587 5591 5593 5589 5587 5600 5608 5606 5600 5601 5600 5601 5602 5603 5605 5604 5606 5608 5609 5610 5609 5616 5616 5619 5620 5621 5618 5620 5623 5616 5623 5614 5625 5625 5622 5624 5626 5629 5629 5630 5629 5630
5575 5579 5582 5573 5576 5576 5572 5573 5580 5588 5582 5579 5580 5583 5584 5586 5585 5589 5588 5587 5590 5594 5592 5592 5595 5603 5601 5606 5603 5605 5609 5609 5606 5605 5604 5607 5610 5607 5612 5612 5617 5617 5617 5616 5615
5558 5562 5565 5558 5556 5555 5556 5557 5563 5570 5564 5562 5564 5562 5566 5569 5568 5569 5571 5578 5579 5579 5581 5582 5579 5588 5589 5593 5590 5591 5594 5597 5598 5598 5595 5592 5593 5597 5596 5596 5601 5603 5602 5601 5599
5537 5540 5544 5544 5540 5536 5538 5541 5544 5552 5550 5544 5545 5549 5551 5554 5551 5552 5558 5563 5569 5566 5568 5573 5568 5575 5580 5580 5579 5578 5582 5584 5583 5586 5586 5580 5582 5583 5584 5584 5585 5584 5585 5585 5587
5518 5522 5526 5526 5523 5524 5525 5524 5523 5532 5534 5532 5530 5535 5539 5539 5534 5540 5543 5553 5553 5553 5553 5559 5554 5558 5564 5568 5568 5568 5571 5573 5572 5569 5570 5571 5572 5572 5571 5570 5574 5572 5573 5574 5574
5503 5504 5511 5511 5510 5509 5510 5510 5509 5514 5514 5517 5517 5520 5524 5525 5527 5523 5531 5538 5540 5541 5541 5542 5542 5544 5549 5556 5555 5554 5558 5557 5555 5555 5556 5559 5560 5561 5559 5560 5563 5562 5562 5564 5565
5490 5491 5494 5495 5496 5496 5498 5496 5498 5500 5500 5503 5505 5510 5513 5513 5513 5512 5518 5523 5525 5528 5528 5528 5528 5533 5536 5540 5541 5541 5542 5543 5544 5549 5543 5553 5548 5554 5547 5550 5553 5553 5554 5552 5555
5480 5482 5481 5482 5482 5483 5482 5484 5484 5487 5486 5492 5492 5498 5500 5499 5503 5504 5505 5509 5513 5515 5517 5519 5517 5520 5521 5527 5526 5526 5529 5533 5533 5534 5532 5536 5538 5539 5538 5541 5542 5542 5543 5544 5544
5468 5467 5467 5470 5470 5469 5471 5470 5472 5469 5472 5476 5479 5481 5488 5490 5488 5489 5493 5496 5500 5502 5506 5507 5509 5510 5509 5515 5514 5513 5521 5521 5521 5520 5522 5523 5526 5526 5530 5529 5531 5533 5533 5534 5534
Wind_Speed
40 36 37 34 37 38 39 39 38 35 32 32 34 32 31 28 31 31 29 31 33 30 29 32 28 31 34 35 33 33 29 28 28 31 31 33 32 33 33 34 34 33 30 29 32
37 36 35 36 37 38 38 37 34 32 30 30 31 29 30 27 29 33 32 32 33 33 29 29 31 31 35 37 35 31 27 26 27 27 27 30 30 33 32 31 32 32 32 31 28
36 37 36 36 36 37 35 33 31 29 27 29 30 29 29 27 28 32 34 31 34 34 29 26 27 28 29 31 30 27 24 28 27 28 27 26 30 32 31 28 28 30 32 31 33
36 36 35 35 35 34 32 31 31 30 29 29 30 30 30 29 29 37 32 34 34 35 32 27 25 26 26 29 29 30 25 30 28 31 32 32 32 33 34 28 30 33 32 32 35
37 37 37 35 35 35 35 35 35 34 33 33 33 34 33 28 31 42 33 34 37 35 34 31 27 28 25 27 30 31 29 30 28 32 34 36 34 38 36 34 37 36 37 39 38
41 41 39 41 40 39 38 39 39 39 38 38 36 36 34 29 34 37 35 32 33 35 36 35 32 32 28 26 27 28 29 28 27 27 33 38 35 41 27 34 40 39 32 31 34
42 43 44 43 46 44 44 42 44 45 44 44 41 39 34 31 35 35 35 30 33 33 36 38 37 33 30 28 30 31 29 27 23 29 33 38 37 34 29 35 36 35 34 33 34
44 45 46 47 50 49 48 50 49 50 49 47 46 43 36 33 37 38 37 36 32 34 34 36 39 35 33 30 31 32 33 27 20 33 35 37 34 28 31 34 34 35 34 33 31
50 50 50 49 51 54 54 51 54 53 54 52 50 48 41 38 39 39 39 40 38 34 35 37 40 37 36 32 32 31 31 32 28 32 38 39 39 28 32 35 35 36 35 34 33
51 50 51 52 53 55 57 55 53 55 56 55 55 53 49 43 41 42 43 41 42 40 37 37 40 42 41 34 36 35 40 39 36 29 36 41 41 34 32 37 36 35 33 34 36
53 53 51 54 53 58 58 57 55 56 55 56 55 55 51 53 52 47 43 43 44 44 43 41 43 41 37 39 40 41 41 41 39 34 40 43 45 41 39 41 40 39 39 38 37
58 56 54 55 54 56 58 57 59 60 58 54 56 56 55 58 59 48 47 47 43 45 43 45 47 41 44 44 44 46 45 44 42 42 44 48 49 48 46 46 47 46 45 42 41
60 61 62 62 61 61 60 63 64 66 65 59 56 62 62 63 63 53 56 54 52 50 46 47 48 50 50 48 48 46 48 47 46 47 49 53 57 51 51 52 51 50 50 49 47
68 64 66 69 67 66 67 69 69 68 67 66 67 66 66 66 65 61 56 57 58 56 51 55 51 49 47 49 48 51 47 49 52 54 54 51 63 53 48 50 52 52 52 52 52
65 64 62 63 64 62 57 62 65 61 66 69 71 69 65 63 61 61 60 59 56 54 55 58 55 52 54 54 53 55 54 53 54 56 57 57 59 62 54 52 53 53 53 53 54
65 62 63 62 68 69 68 65 61 62 68 64 70 69 67 66 65 60 54 58 57 56 59 60 59 61 58 55 55 53 57 58 58 58 60 60 59 56 53 56 50 53 53 55 55
66 65 65 69 67 67 71 70 68 68 67 70 70 71 73 67 63 61 57 53 51 54 55 58 59 59 57 54 53 55 58 60 61 62 58 60 64 55 56 57 58 57 54 53 53
69 64 62 65 66 66 69 72 76 75 74 72 72 70 66 64 64 61 57 56 56 55 57 57 54 52 52 53 54 56 58 61 66 64 61 61 68 63 60 59 58 58 58 60 58
60 60 59 63 63 65 68 71 75 76 78 79 71 66 65 65 64 60 59 59 58 60 58 56 53 53 54 54 54 58 59 60 65 62 68 58 60 63 62 62 59 58 59 61 60
60 61 62 67 67 68 70 73 73 70 69 69 70 68 62 59 55 53 51 53 52 50 49 49 52 49 50 48 55 55 54 53 54 57 64 61 60 63 60 60 57 58 60 61 59
62 62 62 65 67 69 73 75 72 65 64 64 64 65 62 60 59 59 56 48 48 48 44 43 46 48 44 42 46 49 53 53 53 42 39 43 51 52 57 56 53 51 54 56 57
62 62 63 62 64 67 69 68 65 60 59 60 61 61 59 58 59 60 56 54 55 52 51 46 47 48 49 49 47 46 46 49 47 44 46 32 27 31 42 38 45 47 49 52 53
58 58 59 60 63 63 63 62 61 57 56 58 59 58 57 58 58 56 55 53 52 53 55 56 57 57 52 47 48 44 47 50 55 46 45 53 49 27 26 18 26 32 35 43 45
52 55 53 53 53 54 54 53 52 52 53 52 54 50 50 52 51 55 52 50 50 51 51 53 51 54 58 56 46 48 53 51 53 51 51 55 58 54 55 44 35 36 36 31 25
48 52 51 51 51 51 52 52 51 50 50 49 49 45 43 44 37 41 47 45 46 45 46 48 52 54 53 49 54 46 46 51 54 55 55 56 56 54 44 55 51 53 42 44 40
51 50 50 49 50 50 50 50 51 49 52 49 50 45 44 51 50 55 49 45 45 44 43 45 45 43 43 42 49 53 55 51 49 50 50 51 53 51 48 46 47 50 44 43 44
41 36 35 36 37 38 38 39 41 46 48 48 49 49 46 31 39 37 41 50 49 47 43 44 37 40 41 39 42 43 39 48 57 52 49 54 50 51 50 49 45 40 46 45 43
Wind_Direction
273 277 279 276 272 272 275 278 279 278 277 272 268 272 267 266 272 273 272 270 273 274 270 272 270 270 272 272 271 274 271 265 258 255 254 262 265 266 267 270 272 274 276 275 273
274 274 270 270 270 272 275 279 277 276 276 274 271 268 271 271 271 276 277 275 273 274 269 270 274 273 274 275 275 270 266 262 261 264 259 258 263 267 271 273 277 278 278 280 285
272 272 272 271 272 273 274 273 275 275 274 274 273 275 274 275 275 277 279 281 281 277 270 270 276 278 278 276 277 273 262 258 260 265 264 264 262 263 267 269 276 279 282 286 285
273 272 270 272 271 269 270 272 274 274 276 275 276 278 277 281 281 272 278 281 281 279 275 269 272 273 276 276 275 277 271 257 252 260 263 262 262 268 268 270 270 272 274 277 278
272 270 272 267 267 268 270 272 271 272 272 273 278 282 280 279 276 280 275 277 280 281 277 273 271 271 271 272 277 280 274 267 262 259 263 266 266 263 266 272 265 263 269 273 275
274 274 273 274 272 270 270 271 270 271 272 273 277 283 284 284 278 280 279 277 274 275 274 272 270 269 273 271 274 276 280 276 277 273 263 260 259 259 260 262 262 264 268 272 279
269 272 273 272 273 273 275 273 274 275 275 276 278 279 281 284 280 280 284 277 272 268 270 272 271 266 264 268 274 276 275 278 279 276 270 263 258 263 266 264 260 263 264 265 270
268 268 268 271 273 274 273 274 274 274 275 275 277 278 277 277 282 283 284 279 272 272 268 266 268 269 268 264 270 270 272 275 267 265 267 269 271 274 270 270 272 270 268 265 266
268 268 268 267 269 272 274 273 275 276 277 278 280 280 279 278 281 279 280 277 275 269 267 268 269 266 266 269 266 274 274 266 252 259 273 273 272 270 270 270 271 272 274 273 269
266 267 269 271 270 269 270 273 274 273 275 277 278 280 280 285 278 276 275 274 276 272 266 265 266 271 275 277 278 267 265 270 273 264 265 270 275 271 266 267 267 270 270 271 272
266 266 264 265 267 267 268 269 269 267 268 271 274 276 282 283 278 281 282 277 273 270 270 267 268 274 277 273 272 271 273 272 270 262 265 268 274 274 267 268 270 270 270 269 269
265 268 266 264 264 265 267 268 268 267 261 268 269 269 277 278 275 286 283 280 274 271 267 269 273 273 270 269 269 269 270 271 271 272 269 270 268 273 274 273 273 270 268 267 264
270 270 271 272 271 271 268 269 270 269 266 260 271 271 271 274 276 283 280 280 278 274 272 270 273 270 269 269 266 266 269 272 271 265 265 267 270 264 265 265 267 269 269 268 268
267 268 268 266 270 271 271 271 272 273 270 266 268 269 271 275 276 279 281 279 277 278 274 272 270 273 270 269 269 271 268 267 268 267 267 262 275 270 266 265 265 264 266 267 267
265 267 267 267 270 272 280 275 275 277 276 274 276 279 281 279 277 282 279 279 278 275 272 275 272 270 270 272 269 275 272 268 266 267 269 270 264 279 271 265 261 261 262 263 264
263 269 274 279 279 279 281 283 284 281 280 282 285 288 288 286 284 283 278 277 276 276 275 271 271 272 275 271 269 266 265 265 264 264 265 269 266 274 268 270 261 258 255 257 259
275 281 287 288 288 286 285 284 281 278 283 284 284 285 286 283 282 281 280 274 268 267 266 267 269 270 269 266 263 260 258 258 260 260 264 266 265 271 265 260 263 261 257 255 253
292 290 286 283 279 278 279 279 281 279 281 282 280 279 275 276 275 273 271 271 269 262 261 262 264 263 260 258 257 255 255 257 259 258 258 257 262 263 264 263 262 263 264 263 258
280 278 278 276 277 277 276 273 276 278 277 275 271 267 266 266 265 262 262 260 261 262 264 264 259 258 256 256 254 254 254 254 257 257 259 256 258 263 264 264 263 266 266 267 268
270 271 272 276 277 277 275 275 277 275 270 263 262 260 254 252 253 256 257 257 257 260 266 268 265 261 259 256 254 253 253 256 258 260 262 261 262 266 263 265 264 266 267 270 272
275 275 275 274 274 272 272 272 268 261 260 260 259 258 258 255 251 248 244 246 254 256 249 248 253 264 255 253 254 257 258 258 259 258 263 270 268 264 265 267 269 269 267 266 268
278 276 277 274 269 269 268 269 267 264 263 265 264 265 267 269 267 264 259 255 251 253 251 247 259 254 253 258 255 258 259 256 254 250 243 248 272 270 262 269 272 267 265 266 264
272 271 269 269 268 270 271 270 270 267 265 265 264 264 264 265 264 265 268 267 264 262 265 262 258 257 255 250 250 253 262 258 252 258 254 251 261 248 224 256 271 264 263 270 268
271 272 271 270 270 271 270 268 266 265 263 262 262 262 264 264 267 267 265 263 261 258 256 254 256 256 255 257 259 258 256 263 269 273 274 270 267 273 261 266 251 244 236 262 248
271 272 273 272 272 269 267 264 264 264 262 260 258 258 256 255 244 261 266 262 258 258 258 256 255 255 254 252 253 253 256 263 269 269 267 262 265 267 277 274 269 268 274 282 262
272 273 271 269 268 267 264 264 264 262 259 256 256 251 243 254 248 254 260 256 264 264 259 257 256 255 254 253 257 259 259 259 262 262 263 266 264 270 276 279 279 276 286 288 284
272 270 268 268 265 264 265 266 261 260 257 257 250 245 236 246 248 242 254 257 261 257 262 258 254 256 259 251 257 257 264 260 263 267 268 269 272 269 272 276 278 279 285 286 284